Weather History for Minneapolis, MN

Change the Weather History Date:

Wednesday, February 13, 2013

  Actual Average Record
Temperature  
Mean Temperature 30 °F 20 °F  
Max Temperature 39 °F 28 °F 51 °F (1890)
Min Temperature 20 °F 12 °F -23 °F (1905)
Degree Days  
Heating Degree Days 35 45  
Month to date heating degree days 616 607  
Since 1 July heating degree days 4870 5161  
Cooling Degree Days 0 0  
Month to date cooling degree days 0 0  
Year to date cooling degree days 0 0  
Moisture  
Dew Point 28 °F    
Average Humidity 80    
Maximum Humidity 100    
Minimum Humidity 59    
Precipitation  
Precipitation 0.09 in 0.02 in 0.60 in (1915)
Month to date precipitation 0.99 0.30  
Year to date precipitation 1.85 1.20  
Snow  
Snow 0.50 in 0.20 in 5.20 in (1909)
Month to date snowfall 9.5 3.4  
Since 1 July snowfall 29.9 37.4  
Snow Depth 6.00 in    
Sea Level Pressure  
Sea Level Pressure 29.65 in    
Wind  
Wind Speed 5 mph (South)    
Max Wind Speed 13 mph    
Max Gust Speed 17 mph    
Visibility 5 miles    
Events Rain , Snow    
T = Trace of Precipitation, MM = Missing Value Source: NWS Daily Summary

Daily Weather History Graph

Daily Weather History Graph

Search for Another Location

Airport:

Trip Planner

Search our weather history database for the weather conditions in past years. The results will help you decide how hot, cold, wet, or windy it might be!

Date:

Astronomy

Feb. 13, 2013 Rise Set
Actual Time 7:16 AM CST 5:38 PM CST
Civil Twilight 6:45 AM CST 6:08 PM CST
Nautical Twilight 6:11 AM CST 6:43 PM CST
Astronomical Twilight 5:37 AM CST 7:17 PM CST
Moon 8:33 AM CST (2/13) 9:55 PM CST (2/13)
Length of Visible Light 11h 23m
Length of Day
10h 22m
Waxing Crescent, 14% of the Moon is Illuminated
Feb 13
Waxing Crescent
Feb 17
First Quarter
Feb 25
Full
Mar 4
Last Quarter
Mar 11
New

Hourly Weather History & Observations

Time (CST) Temp. Windchill Dew Point Humidity Pressure Visibility Wind Dir Wind Speed Gust Speed Precip Events Conditions
12:53 AM 23.0 °F 17.0 °F 19.0 °F 85% 29.83 in 9.0 mi SW 4.6 mph - N/A   Mostly Cloudy
1:53 AM 21.9 °F 15.7 °F 18.0 °F 85% 29.81 in 9.0 mi SW 4.6 mph - N/A   Mostly Cloudy
2:53 AM 21.9 °F 17.2 °F 18.0 °F 85% 29.81 in 9.0 mi SW 3.5 mph - N/A   Overcast
3:53 AM 21.9 °F 15.7 °F 18.0 °F 85% 29.80 in 9.0 mi SW 4.6 mph - N/A   Overcast
4:53 AM 21.0 °F 16.2 °F 17.1 °F 85% 29.79 in 9.0 mi WSW 3.5 mph - N/A   Mostly Cloudy
5:53 AM 19.9 °F 14.9 °F 17.1 °F 89% 29.79 in 9.0 mi WSW 3.5 mph - N/A   Overcast
6:53 AM 19.9 °F 14.9 °F 17.1 °F 89% 29.77 in 8.0 mi WSW 3.5 mph - N/A   Mostly Cloudy
7:53 AM 21.0 °F 16.2 °F 17.1 °F 85% 29.77 in 8.0 mi WSW 3.5 mph - N/A   Overcast
8:53 AM 21.9 °F 13.4 °F 18.0 °F 85% 29.76 in 8.0 mi SW 6.9 mph - N/A   Overcast
9:53 AM 25.0 °F 16.3 °F 19.9 °F 81% 29.75 in 8.0 mi SW 8.1 mph - N/A   Mostly Cloudy
10:53 AM 28.9 °F 21.9 °F 21.9 °F 75% 29.75 in 10.0 mi WSW 6.9 mph - N/A   Overcast
11:53 AM 33.1 °F 30.0 °F 25.0 °F 72% 29.73 in 10.0 mi Variable 3.5 mph - N/A   Mostly Cloudy
12:53 PM 35.1 °F 29.3 °F 25.0 °F 67% 29.70 in 10.0 mi SW 6.9 mph - N/A   Mostly Cloudy
1:53 PM 37.0 °F 31.6 °F 25.0 °F 62% 29.68 in 10.0 mi SSW 6.9 mph - N/A   Mostly Cloudy
2:53 PM 39.0 °F 31.8 °F 26.1 °F 60% 29.66 in 10.0 mi SW 11.5 mph - N/A   Mostly Cloudy
3:53 PM 39.0 °F 32.8 °F 27.0 °F 62% 29.66 in 10.0 mi SW 9.2 mph - N/A   Overcast
4:53 PM 37.9 °F - 28.0 °F 68% 29.66 in 10.0 mi Calm Calm - N/A   Overcast
5:53 PM 37.9 °F 35.5 °F 30.0 °F 73% 29.65 in 10.0 mi SE 3.5 mph - N/A   Overcast
6:53 PM 36.0 °F 31.1 °F 30.9 °F 82% 29.64 in 9.0 mi ESE 5.8 mph - 0.00 in Rain , Snow Light Rain
7:00 PM 37.4 °F 32.8 °F 30.2 °F 75% 29.60 in 9.0 mi ESE 5.8 mph - 0.00 in Rain , Snow Light Rain
7:36 PM 35.6 °F 29.9 °F 32.0 °F 87% 29.60 in 2.5 mi ESE 6.9 mph - 0.00 in Snow Light Snow
7:42 PM 33.8 °F 27.0 °F 32.0 °F 93% 29.59 in 1.5 mi ESE 8.1 mph - 0.00 in Snow Light Snow
7:53 PM 34.0 °F 27.2 °F 33.1 °F 96% 29.62 in 1.5 mi ESE 8.1 mph - 0.01 in Snow Light Snow
7:59 PM 33.8 °F 27.7 °F 32.0 °F 93% 29.58 in 1.2 mi ESE 6.9 mph - 0.01 in Snow Light Snow
8:14 PM 33.8 °F 27.0 °F 33.8 °F 100% 29.58 in 1.2 mi ESE 8.1 mph - 0.02 in Snow Light Snow
8:32 PM 33.8 °F 27.7 °F 33.8 °F 100% 29.57 in 1.5 mi ESE 6.9 mph - 0.03 in Snow Light Snow
8:53 PM 33.1 °F 27.7 °F 33.1 °F 100% 29.60 in 1.5 mi ESE 5.8 mph - 0.03 in Snow Light Snow
9:00 PM 33.8 °F 28.6 °F 33.8 °F 100% 29.56 in 1.2 mi ESE 5.8 mph - 0.01 in Snow Light Snow
9:12 PM 33.8 °F 28.6 °F 33.8 °F 100% 29.56 in 1.5 mi ESE 5.8 mph - 0.01 in Snow Light Snow
9:53 PM 33.1 °F - 33.1 °F 100% 29.59 in 1.0 mi Calm Calm - 0.01 in Snow Light Snow
10:03 PM 33.8 °F - 33.8 °F 100% 29.55 in 0.8 mi Calm Calm - 0.01 in Snow Light Snow
10:15 PM 33.8 °F - 32.0 °F 93% 29.55 in 0.8 mi Calm Calm - 0.01 in Snow Light Snow
10:26 PM 33.8 °F - 33.8 °F 100% 29.55 in 0.8 mi Calm Calm - 0.01 in Snow Light Snow
10:44 PM 33.8 °F - 33.8 °F 100% 29.55 in 1.0 mi Calm Calm - 0.02 in Snow Light Snow
10:51 PM 33.8 °F - 33.8 °F 100% 29.55 in 0.8 mi Calm Calm - 0.02 in Snow Light Snow
10:53 PM 33.1 °F - 33.1 °F 100% 29.58 in 0.8 mi Calm Calm - 0.02 in Snow Light Snow
11:13 PM 33.8 °F - 33.8 °F 100% 29.55 in 1.0 mi Calm Calm - 0.00 in Snow Light Snow
11:23 PM 33.8 °F - 33.8 °F 100% 29.55 in 1.0 mi Calm Calm - 0.00 in Snow Light Snow
11:40 PM 33.8 °F - 33.8 °F 100% 29.56 in 0.8 mi Calm Calm - 0.01 in Snow Light Snow
11:53 PM 33.1 °F 30.0 °F 32.0 °F 96% 29.59 in 0.8 mi NNW 3.5 mph - 0.02 in Snow Light Snow